Location: Radomski Observatory
(40.2854°N, 79.5145°W)
Time: 22:38:43
(UTC-04:00)

Cosmos 1072 Rocket - Visible Passes

Search period start: 28 July 2015 00:00
Search period end: 07 August 2015 00:00
Orbit: 948 x 1009 km, 82.9° (Epoch: 27 July)

Date Brightness Start Highest point End Pass type
(mag) Time Alt. Az. Time Alt. Az. Time Alt. Az.
28 Jul 5.6 21:47:36 10° SSW 21:53:43 47° WNW 21:59:44 10° N visible
29 Jul 6.7 22:15:12 10° SW 22:20:27 26° WNW 22:25:30 10° NNW visible
30 Jul 7.3 22:44:08 10° W 22:47:26 14° WNW 22:50:22 10° NW visible
31 Jul 5.5 21:21:17 10° SSW 21:27:27 52° WNW 21:33:33 10° N visible
01 Aug 6.6 21:48:43 10° SW 21:54:09 28° WNW 21:59:24 10° NNW visible
02 Aug 7.3 22:17:21 10° WSW 22:21:06 15° WNW 22:24:30 10° NNW visible
03 Aug 5.4 20:54:59 10° SSW 21:01:12 57° W 21:07:21 10° N visible
04 Aug 6.5 21:22:17 10° SW 21:27:51 31° WNW 21:33:16 10° NNW visible
05 Aug 7.3 21:50:39 10° WSW 21:54:46 17° WNW 21:58:34 10° NNW visible
